This demonstration page uses our WeatherBlox Daily Observations layout. Learn more.

Left ArrowRight Arrow

Hourly Observations for January 29, 2015

Temp ( °F °C ) Dew Point ( °F °C ) Humidity (%) Winds ( mph kmh ) Pressure ( in mb ) Visibility ( mi km ) Precip ( " mm )
12:31 am 00:31 Cloudy 39 3.9 33 0.6 79 79 NNW 31 50 30.00 1016 10 16 0.00 0.00
12:52 am 00:52 Cloudy 38 3.3 32 0 79 79 NNW 35 56 30.00 1016 10 16 0.00 0.00
1:06 am 01:06 Cloudy 37 3 30 -1 75 75 NNW 32 52 30.03 1017 10 16 0.00 0.00
1:52 am 01:52 Cloudy 38 3.3 29 -1.7 70 70 NNW 26 43 30.04 1017 10 16 0.00 0.00
2:52 am 02:52 Cloudy with Light Rain 37 2.8 29 -1.7 73 73 NNW 26 43 30.09 1019 10 16 0.00 0.03
3:52 am 03:52 Cloudy with Light Rain 35 1.7 30 -1.1 82 82 NNW 28 44 30.13 1020 10 16 0.00 0.03
4:52 am 04:52 Cloudy 36 2.2 29 -1.7 76 76 NNW 25 41 30.16 1021 10 16 0.00 0.03
5:52 am 05:52 Cloudy 37 2.8 29 -1.7 73 73 NNW 25 41 30.20 1023 10 16 0.00 0.00
6:52 am 06:52 Cloudy 36 2.2 28 -2.2 73 73 NNW 18 30 30.24 1024 10 16 0.00 0.00
7:52 am 07:52 Cloudy 36 2.2 27 -2.8 70 70 NNW 22 35 30.28 1026 10 16 0.00 0.00
8:52 am 08:52 Cloudy 36 2.2 28 -2.2 73 73 NNW 21 33 30.32 1027 10 16 0.00 0.00
9:52 am 09:52 Cloudy 37 2.8 27 -2.8 67 67 NNW 25 41 30.35 1028 10 16 0.00 0.00
10:52 am 10:52 Cloudy 37 2.8 26 -3.3 65 65 NNW 23 37 30.40 1029 10 16 0.00 0.00
10:59 am 10:59 Cloudy 37 2.8 26 -3.3 65 65 NNW 21 33 30.42 1030 10 16 0.00 0.00
11:52 am 11:52 Cloudy 38 3.3 25 -3.9 60 60 NNW 26 43 30.41 1030 10 16 0.00 0.00
12:52 pm 12:52 Cloudy 39 3.9 26 -3.3 60 60 NNW 23 37 30.41 1030 10 16 0.00 0.00
1:52 pm 13:52 Cloudy 38 3.3 25 -3.9 60 60 N 24 39 30.42 1030 10 16 0.00 0.00
2:52 pm 14:52 Cloudy 38 3.3 25 -3.9 60 60 NNW 18 30 30.44 1031 10 16 0.00 0.00
3:52 pm 15:52 Mostly Cloudy 38 3.3 25 -3.9 60 60 N 16 26 30.46 1031 10 16 0.00 0.00
4:52 pm 16:52 Mostly Cloudy 37 2.8 25 -3.9 62 62 N 15 24 30.48 1032 10 16 0.00 0.00
5:52 pm 17:52 Mostly Cloudy 35 1.7 25 -3.9 67 67 N 12 19 30.50 1033 10 16 0.00 0.00
6:52 pm 18:52 Mostly Cloudy 34 1.1 24 -4.4 67 67 NNW 14 22 30.52 1034 10 16 0.00 0.00
7:52 pm 19:52 Clear 31 -0.6 23 -5 72 72 NNW 13 20 30.54 1034 10 16 0.00 0.00
8:52 pm 20:52 Clear 28 -2.2 22 -5.6 78 78 NNW 9 15 30.56 1035 10 16 0.00 0.00
9:52 pm 21:52 Clear 29 -1.7 22 -5.6 75 75 NNW 12 19 30.57 1035 10 16 0.00 0.00
10:52 pm 22:52 Mostly Clear 28 -2.2 22 -5.6 78 78 N 9 15 30.57 1035 10 16 0.00 0.00
11:52 pm 23:52 Clear 26 -3.3 21 -6.1 81 81 N 6 9 30.58 1036 10 16 0.00 0.00

Powered by AerisWeather